TimePDT,TemperatureF,Dew PointF,Humidity,Sea Level PressureIn,VisibilityMPH,Wind Direction,Wind SpeedMPH,Gust SpeedMPH,PrecipitationIn,Events,Conditions,WindDirDegrees,DateUTC
12:53 AM,48.0,35.1,61,29.72,10.0,NNW,12.7,23.0,0.00,,Overcast,330,2012-10-20 07:53:00
1:53 AM,46.0,35.1,66,29.72,10.0,North,5.8,16.1,N/A,,Partly Cloudy,350,2012-10-20 08:53:00
2:53 AM,46.9,33.1,59,29.74,10.0,NW,12.7,26.5,N/A,,Clear,320,2012-10-20 09:53:00
3:53 AM,46.0,30.9,56,29.73,10.0,North,17.3,-,N/A,,Mostly Cloudy,350,2012-10-20 10:53:00
4:53 AM,43.0,30.9,62,29.75,10.0,NNW,21.9,26.5,N/A,,Clear,330,2012-10-20 11:53:00
5:53 AM,42.1,30.0,62,29.77,10.0,NNW,17.3,-,N/A,,Clear,330,2012-10-20 12:53:00
6:53 AM,42.1,28.9,60,29.78,10.0,NNW,19.6,-,N/A,,Clear,330,2012-10-20 13:53:00
7:53 AM,42.1,28.9,60,29.80,10.0,NW,19.6,27.6,N/A,,Clear,310,2012-10-20 14:53:00
8:53 AM,45.0,28.0,52,29.82,10.0,WNW,11.5,-,N/A,,Clear,290,2012-10-20 15:53:00
9:53 AM,46.0,30.9,56,29.84,10.0,WNW,15.0,-,N/A,,Clear,300,2012-10-20 16:53:00
10:53 AM,48.9,32.0,52,29.84,10.0,NW,13.8,-,N/A,,Scattered Clouds,320,2012-10-20 17:53:00
11:53 AM,46.0,32.0,58,29.86,10.0,NW,21.9,32.2,0.00,,Overcast,320,2012-10-20 18:53:00
12:53 PM,50.0,30.9,48,29.85,10.0,NW,20.7,26.5,N/A,,Clear,320,2012-10-20 19:53:00
1:53 PM,52.0,28.0,40,29.85,10.0,NW,18.4,-,N/A,,Clear,310,2012-10-20 20:53:00
2:53 PM,52.0,26.1,37,29.83,10.0,NNW,18.4,26.5,N/A,,Clear,330,2012-10-20 21:53:00
3:53 PM,50.0,25.0,38,29.83,10.0,NW,16.1,24.2,N/A,,Mostly Cloudy,320,2012-10-20 22:53:00
4:53 PM,48.0,26.1,42,29.83,10.0,NW,12.7,-,N/A,,Mostly Cloudy,320,2012-10-20 23:53:00
5:53 PM,45.0,26.1,48,29.84,10.0,NW,16.1,-,N/A,,Overcast,320,2012-10-21 00:53:00
6:53 PM,42.1,30.9,65,29.86,10.0,WNW,9.2,-,N/A,,Mostly Cloudy,300,2012-10-21 01:53:00
7:53 PM,39.9,30.9,70,29.86,10.0,NW,5.8,-,N/A,,Overcast,310,2012-10-21 02:53:00
8:53 PM,35.1,28.0,76,29.87,10.0,West,6.9,-,N/A,,Scattered Clouds,270,2012-10-21 03:53:00
9:53 PM,34.0,28.0,79,29.87,10.0,WSW,4.6,-,N/A,,Clear,250,2012-10-21 04:53:00
10:53 PM,32.0,27.0,82,29.87,10.0,WNW,5.8,-,N/A,,Clear,300,2012-10-21 05:53:00
11:53 PM,33.1,28.0,82,29.87,10.0,Calm,Calm,-,N/A,,Clear,0,2012-10-21 06:53:00